Regional Weather Roundup
Issued by NWS

Home | Current Version | Previous Version | Text Only | Print | Product List | Glossary On
Versions: 1 2 3 4 5 6 7 8 9 10 11 12 13 14 15 16 17 18 19 20 21 22 23 24 25 26 27 28 29 30 31 32 33 34 35 36 37 38 39 40 41 42 43 44 45 46 47 48 49 50
000
ASUS43 KFSD 201110
RWRSD

WEATHER ROUNDUP FOR SOUTH DAKOTA
NATIONAL WEATHER SERVICE SIOUX FALLS SD
600 AM CDT MON OCT 20 2014

NOTE: "FAIR" INDICATES FEW OR NO CLOUDS BELOW 12,000 FEET WITH NO
SIGNIFICANT WEATHER AND/OR OBSTRUCTIONS TO VISIBILITY.


SDZ001>005-009-010-012>017-201200-
NORTHWEST AND NORTH CENTRAL SOUTH DAKOTA

CITY           SKY/WX    TMP DP  RH WIND       PRES   REMARKS
BUFFALO          N/A     45  35  68 SE6       29.97F
FAITH            N/A     43  36  76 S10       30.06F
MOBRIDGE       MOCLDY    35  33  92 CALM      30.04S
$$

SDZ012>016-024>037-041>051-057-063-072>074-201200-
SOUTHWEST AND SOUTH CENTRAL SOUTH DAKOTA

CITY           SKY/WX    TMP DP  RH WIND       PRES   REMARKS
RAPID CTY ARPT CLEAR     43  36  76 CALM      30.06F
PIERRE         PTCLDY    40  34  79 CALM      30.07R
CUSTER         CLEAR     40  33  76 NW3       30.14F
ELLSWORTH AFB  CLEAR     50  37  62 S8        30.05F
PHILIP         CLEAR     34  31  88 W5        30.08R WCI  30
PINE RIDGE     CLEAR     33  32  96 E3        30.08F
SPEARFISH      FAIR      48  36  61 SE6       30.05F
WINNER         FAIR      46  36  68 SW5       30.08S
$$

SDZ004>011-016>023-039-040-201200-
NORTHEAST SOUTH DAKOTA

CITY           SKY/WX    TMP DP  RH WIND       PRES   REMARKS
ABERDEEN       CLEAR     32  29  88 CALM      30.05R
WATERTOWN      CLEAR     34  33  96 CALM      30.04R
SISSETON         N/A     40  35  83 NW5       30.01R
$$

SDZ017-020-022-023-036>040-048>070-201200-
SOUTHEAST SOUTH DAKOTA

CITY           SKY/WX    TMP DP  RH WIND       PRES   REMARKS
SIOUX FALLS    CLEAR     37  34  89 CALM      30.04R
HURON          CLEAR     33  30  88 CALM      30.07R
CHAMBERLAIN    CLEAR     39  34  82 W3        30.08R
MITCHELL       CLEAR     35  32  88 NW3       30.07R
YANKTON        CLEAR     41  36  81 W3        30.06R
$$

ABBREVIATIONS USED IN REMARKS
   TC - TEMPERATURE IN CELSIUS
  WCI - WIND CHILL INDEX
   HX - HEAT INDEX
  VSB - VISIBILITY



USA.gov is the U.S. government's official web portal to all federal, state and local government web resources and services.